Regional Weather Roundup
Issued by NWS

Home | Current Version | Previous Version | Text Only | Print | Product List | Glossary On
Versions: 1 2 3 4 5 6 7 8 9 10 11 12 13 14 15 16 17 18 19 20 21 22 23 24 25 26 27
000
ASUS45 KTFX 061510
RWRMT
MONTANA REGIONAL WEATHER ROUNDUP
NATIONAL WEATHER SERVICE GREAT FALLS MT
900 AM MDT FRI MAY 06 2016

NOTE: "FAIR" INDICATES FEW OR NO CLOUDS BELOW 12000 FEET WITH NO
SIGNIFICANT WEATHER AND/OR OBSTRUCTIONS TO VISIBILITY.

MTZ001>007-043-061600-
WEST OF THE DIVIDE

CITY           SKY/WX    TMP DP  RH WIND       PRES   REMARKS
KALISPELL      PTSUNNY   58  42  55 NE21G28   30.17R
MISSOULA       CLOUDY    58  42  55 SE17      30.13R
BUTTE          CLOUDY    48  39  71 CALM      30.18S
MULLAN PASS    FOG       43  43 100 E8          N/A  VSB<1/4
ANACONDA         N/A     48  43  81 N14       30.18S
DEER LODGE       N/A     48  43  81 N20       30.19S
EUREKA           N/A     55  43  62 CALM      30.19
HAMILTON         N/A     55  43  62 NW10      30.10S
LIBBY            N/A     55  48  76 CALM      30.17R
$$

MTZ008-052>055-061600-
SOUTHWEST MONTANA

CITY           SKY/WX    TMP DP  RH WIND       PRES   REMARKS
BOZEMAN        PTSUNNY   57  44  62 W8        30.13S
DILLON         CLOUDY    54  39  57 NE22      30.11R
ENNIS          MOSUNNY   50  41  71 N20       30.17S
THREE FORKS      N/A     57  26  30 N12       30.13R
TWIN BRIDGES     N/A     54  38  54 N28       30.07R
$$

MTZ009-010-012-014-046-048-049-054-061600-
EAST SLOPES AND CENTRAL MONTANA

CITY           SKY/WX    TMP DP  RH WIND       PRES   REMARKS
CUT BANK       CLOUDY    47  41  80 N10       30.29R
GREAT FALLS    CLOUDY    46  43  89 N7        30.27S
MALMSTROM AFB  CLOUDY    46  44  93 N8        30.28S
HELENA         CLOUDY    51  43  74 N12       30.23S
CHOTEAU          N/A     46  43  87 N9        30.29F
CONRAD           N/A     48  48 100 NW9       30.28S
$$

MTZ011-013-016-021-045-047-050-051-061600-
NORTH CENTRAL MONTANA

CITY           SKY/WX    TMP DP  RH WIND       PRES   REMARKS
HAVRE          CLOUDY    52  42  69 N10       30.26S
LEWISTOWN      CLOUDY    48  44  86 MISG      30.25R
N BAR RANCH      N/A     55  45  67 NW17      30.23R
$$

MTZ017>020-022>027-061-062-061600-
NORTHEAST MONTANA

CITY           SKY/WX    TMP DP  RH WIND       PRES   REMARKS
GLASGOW        LGT RAIN  51  46  83 N8        30.14F
JORDAN           N/A     56  44  64 N15       30.15R
SIDNEY         CLOUDY    57  43  58 N16       30.07R
WOLF POINT     CLOUDY    57  43  59 N15       30.16R
POPLAR           N/A     57  43  58 N16G26    30.15R
$$

MTZ028>42-056>058-061600-
SOUTHCENTRAL AND SOUTHEAST MONTANA

CITY           SKY/WX    TMP DP  RH WIND       PRES   REMARKS
BAKER          CLOUDY    62  43  49 N18       30.05R
BILLINGS       PTSUNNY   56  42  59 N13       30.19R HAZE
LIVINGSTON     CLOUDY    54  40  59 E21       30.17R HAZE
MILES CITY     CLOUDY    62  42  47 N21       30.08R
FORSYTH          N/A     59  43  55 N8G16     30.12R
LAUREL           N/A     58  41  53 N9        30.16R
ROUNDUP          N/A     54  42  63 N9        30.10S
$$

REGIONAL REPORTS...DAKOTAS

CITY           SKY/WX    TMP DP  RH WIND       PRES   REMARKS
WILLISTON      MOSUNNY   58  42  55 N20       30.06
MINOT          SUNNY     69  43  38 N23G33    29.95R
DICKINSON      SUNNY     62  44  51 N21G26    29.98R
BEACH            N/A     57  41  54 N21G29    30.07S
CROSBY         PTSUNNY   52  45  76 N15G21    30.09R
TIOGA            N/A     57  41  54 N22       30.08R
WATFORD CITY     N/A     59  43  55 N15       30.05R
BISMARCK       MOSUNNY   70  49  47 N12       29.88
GRAND FORKS    PTSUNNY   68  45  43 N29G37    29.78R
FARGO          SUNNY     76  50  40 SW12      29.74S
BUFFALO SD       N/A     68  45  43 N16       29.92R
RAPID CITY     SUNNY     71  54  54 CALM      29.91R
$$

REGIONAL REPORTS...WYOMING/IDAHO/WASHINGTON

CITY           SKY/WX    TMP DP  RH WIND       PRES   REMARKS
GILLETTE       CLOUDY    61  44  53 N17       30.04R
SHERIDAN       MOSUNNY   57  44  62 NW28G33   30.15R HAZE
BUFFALO WY     CLOUDY    55  41  59 N39G49    30.10R HAZE
CODY           CLOUDY    54  37  54 N25G35    30.14R
YELLOWSTONE LA   N/A     46  36  68 CALM      30.16R
IDAHO FALLS    CLOUDY    60  40  47 NE8       29.94S
SALMON         CLOUDY    57  45  62 E3        30.01S
BOISE          CLOUDY    57  50  77 CALM      29.84R
SPOKANE        PTSUNNY   60  49  66 N10       30.04R
$$

REGIONAL REPORTS...ALBERTA

CITY           SKY/WX    TMP DP  RH WIND       PRES   REMARKS
EDMONTON       MOSUNNY   50  27  40 S5        30.24S
LETHBRIDGE     PTSUNNY   54  39  58 W9        30.29R
MEDICINE HAT   PTSUNNY   52  43  71 VRB2      30.27R
WATERTON GATE    N/A     45  41  87 S2          N/A
CARDSTON         N/A     48  39  71 W2          N/A
MILK RIVER       N/A     48  45  87 N8          N/A
$$

REGIONAL REPORTS...SASKATCHEWAN

CITY           SKY/WX    TMP DP  RH WIND       PRES   REMARKS
SWIFT CURRENT  SUNNY     50  37  62 W10       30.21R
REGINA         PTSUNNY   54  39  58 N12G17    30.14S
SASKATOON      PTSUNNY   55  37  50 NW22      30.14S
CYPRESS HILLS    N/A     45  34  65 N5          N/A
VAL MARIE        N/A     52  39  62 N16         N/A
ROCKGLEN         N/A     52  39  62 N18G25      N/A
$$




USA.gov is the U.S. government's official web portal to all federal, state and local government web resources and services.